DateTime,F1_A11,F1_S11,BsB_S11,BsG_S11,BsR_S11,BbsB_S11,BbsG_S11,BbsR_S11,BaB_A11,BaG_A11,BaR_A11,T_S11,U_S11,P_S11,T1_A11
2016-06-26T00:00:00Z,0000380,20000600,,,,,,,,,,26.3,03.9,0666.2,34.6
2016-06-26T00:01:00Z,0000380,20000600,,,,,,,,,,26.3,03.8,0666.2,34.6
2016-06-26T00:02:00Z,0000380,20000600,,,,,,,,,,26.3,03.8,0666.2,34.6
2016-06-26T00:03:00Z,0000380,60000600,,,,,,,,,,26.4,03.8,0666.2,34.6
2016-06-26T00:04:00Z,0000380,40000600,0001.75,-000.11,-000.10,-000.24,-000.08,-000.14,0000.05,-000.15,-000.39,26.5,03.8,0667.0,34.6
2016-06-26T00:05:00Z,0000380,00000600,0000.42,0000.35,0000.07,0000.94,-000.43,0000.35,0000.03,0000.21,0000.08,26.5,03.8,0667.0,34.6
2016-06-26T00:06:00Z,0000380,00000600,0000.61,0000.20,0000.28,0000.35,-000.21,0000.44,0000.09,0000.13,0000.33,26.5,03.7,0667.0,34.6
2016-06-26T00:07:00Z,0000380,00000600,-000.07,0000.98,0000.06,-000.11,-000.27,0000.05,0000.09,-000.20,-000.13,26.5,03.8,0667.0,34.6
2016-06-26T00:08:00Z,0000380,00000600,0000.83,-000.02,0000.73,0000.24,0000.08,0000.08,-000.10,0000.06,-000.13,26.5,03.8,0667.0,34.6
2016-06-26T00:09:00Z,0000380,00000600,0000.98,0000.35,0000.64,0000.60,-000.03,0000.16,0000.13,0000.07,0000.20,26.5,03.8,0667.0,34.6
2016-06-26T00:10:00Z,0000380,00000600,0000.64,0000.32,0000.34,0000.19,0000.25,0000.41,-000.05,0000.20,0000.13,26.4,03.9,0667.0,34.6
2016-06-26T00:11:00Z,0000380,00000600,0000.29,0000.59,0000.37,0001.01,-000.05,0000.32,0000.09,-000.24,-000.13,26.4,03.8,0667.0,34.6
2016-06-26T00:12:00Z,0000380,00000600,0001.70,0000.77,0000.43,0000.59,0000.16,0000.08,-000.07,-000.01,0000.22,26.4,03.8,0667.0,34.6
2016-06-26T00:13:00Z,0000380,00000600,0000.09,0001.02,0000.12,-000.05,-000.02,-000.13,-000.14,-000.07,-000.34,26.4,03.8,0667.0,34.6
2016-06-26T00:14:00Z,0000380,00000600,0000.15,0000.09,0000.52,-000.14,0000.06,-000.11,0000.10,0000.07,0000.41,26.4,03.8,0667.0,34.6
2016-06-26T00:15:00Z,0000380,00000600,0000.57,0001.02,0000.77,0000.21,-000.17,0000.11,0000.20,0000.08,-000.47,26.4,03.8,0667.0,34.6
2016-06-26T00:16:00Z,0000380,00000600,0001.12,0000.06,0000.49,0000.11,0000.38,-000.02,-000.02,0000.17,0000.32,26.4,03.8,0667.0,34.6
2016-06-26T00:17:00Z,0000380,00000600,0000.79,0000.35,0000.57,0000.46,0000.06,0000.03,-000.08,-000.13,-000.29,26.4,03.8,0667.0,34.6
2016-06-26T00:18:00Z,0000380,00000600,0000.58,0000.11,0000.61,0000.32,0000.09,0000.13,-000.02,-000.01,0000.12,26.4,03.8,0667.0,34.6
2016-06-26T00:19:00Z,0000380,00000600,0000.95,0000.29,0000.45,0000.86,-000.06,0000.00,0000.17,0000.15,0000.02,26.4,03.9,0667.0,34.6
2016-06-26T00:20:00Z,0000380,00000600,0001.33,0000.19,0000.23,0000.95,0000.35,0000.05,0000.07,-000.04,0000.23,26.4,03.9,0667.0,34.6
2016-06-26T00:21:00Z,0000380,00000600,0001.50,0000.12,0000.00,0000.73,0000.27,0000.00,-000.08,0000.17,0000.12,26.4,03.9,0667.0,34.6
2016-06-26T00:22:00Z,0000380,00000600,0000.14,0000.66,0000.20,0000.59,0000.30,-000.30,0000.15,0000.05,0000.24,26.4,03.9,0667.0,34.6
2016-06-26T00:23:00Z,0000380,00000600,0001.06,0000.39,0000.02,-000.05,0000.50,-000.19,0000.09,0000.19,-000.72,26.4,03.9,0667.1,34.6
2016-06-26T00:24:00Z,0000380,00000600,0000.73,0000.31,0000.47,0000.44,0000.17,0000.36,-000.19,-000.23,0000.44,26.4,03.9,0667.0,34.6
2016-06-26T00:25:00Z,0000380,00000600,0001.40,0000.39,-000.03,-000.03,-000.25,0000.08,0000.12,0000.17,0000.12,26.4,03.9,0667.1,34.6
2016-06-26T00:26:00Z,0000380,00000600,0000.87,0000.45,0000.38,0000.22,-000.21,-000.27,0000.08,-000.02,-000.03,26.4,03.9,0667.1,34.6
2016-06-26T00:27:00Z,0000380,00000600,0001.04,0000.50,0000.75,-000.13,0000.03,-000.16,-000.06,-000.09,0000.12,26.4,03.9,0667.1,34.6
2016-06-26T00:28:00Z,0000380,00000600,-000.37,0000.55,0000.05,0000.51,0000.08,0000.17,-000.04,-000.05,-000.28,26.5,03.9,0667.1,34.6
2016-06-26T00:29:00Z,0000380,00000600,0000.56,0000.76,0000.40,0000.32,-000.17,0000.27,0000.14,0000.11,-000.00,26.5,03.8,0667.1,34.6
2016-06-26T00:30:00Z,0000380,00000600,0000.58,0000.70,0000.20,0000.43,-000.06,0000.43,-000.06,0000.22,0000.08,26.5,03.9,0667.1,34.6
2016-06-26T00:31:00Z,0000380,00000600,0001.29,0000.65,0000.34,-000.08,-000.41,0000.16,0000.17,0000.02,0000.28,26.5,03.8,0667.1,34.6
2016-06-26T00:32:00Z,0000380,00000600,0000.17,0000.29,0000.37,0000.51,-000.24,0000.22,0000.05,-000.08,-000.08,26.5,03.8,0667.1,34.6
2016-06-26T00:33:00Z,0000380,00000600,0000.15,0000.23,0000.49,0000.60,0000.02,0000.17,-000.04,-000.05,0000.15,26.5,03.9,0667.1,34.6
2016-06-26T00:34:00Z,0000380,00000600,0000.47,0000.30,0000.41,-000.19,-000.05,0000.22,0000.18,0000.16,-000.29,26.5,03.9,0667.1,34.6
2016-06-26T00:35:00Z,0000380,00000600,0000.95,0000.49,0000.27,-000.46,0000.14,0000.36,0000.02,0000.02,0000.53,26.5,03.9,0667.1,34.6
2016-06-26T00:36:00Z,0000380,00000600,0001.39,0000.82,0000.75,0000.08,0000.27,0000.21,0000.10,-000.05,-000.24,26.5,03.9,0667.1,34.6
2016-06-26T00:37:00Z,0000380,00000600,0001.24,-000.02,0000.26,0000.52,0000.38,0000.06,-000.06,-000.01,0000.13,26.5,03.9,0667.1,34.6
2016-06-26T00:38:00Z,0000380,00000600,0000.10,0000.60,0000.56,-000.25,0000.13,0000.13,-000.17,0000.02,-000.08,26.5,03.8,0667.1,34.6
2016-06-26T00:39:00Z,0000380,00000600,0000.52,0000.51,0000.14,0000.67,0000.47,0000.22,0000.34,0000.14,-000.19,26.5,03.8,0667.1,34.6
2016-06-26T00:40:00Z,0000380,00000600,0000.39,0000.55,0000.43,0000.29,0000.00,0000.08,0000.06,0000.13,0000.41,26.5,03.9,0667.1,34.6
2016-06-26T00:41:00Z,0000380,00000600,0000.98,0000.45,0000.23,0000.11,0000.44,0000.24,-000.30,-000.21,-000.11,26.5,03.8,0667.1,34.6
2016-06-26T00:42:00Z,0000380,00000600,0001.08,0000.39,0000.21,0000.60,-000.13,0000.17,0000.12,0000.14,-000.29,26.5,03.8,0667.1,34.6
2016-06-26T00:43:00Z,0000380,00000600,0000.86,0000.53,0000.34,0000.19,-000.19,0000.16,-000.05,-000.05,0000.09,26.5,03.9,0667.1,34.6
2016-06-26T00:44:00Z,0000380,00000600,0001.31,0000.76,0000.08,-000.19,-000.13,0000.05,-000.01,-000.06,0000.29,26.5,03.8,0667.1,34.6
2016-06-26T00:45:00Z,0000380,00000600,0001.46,0000.60,0000.54,0000.36,-000.16,0000.19,0000.22,0000.17,-000.07,26.5,03.8,0667.1,34.6
2016-06-26T00:46:00Z,0000380,00000600,0001.12,0000.30,0000.17,0000.40,-000.03,0000.43,-000.05,-000.05,0000.04,26.5,03.8,0667.1,34.6
2016-06-26T00:47:00Z,0000380,00000600,0000.37,0000.12,0000.73,-000.02,0000.02,0000.54,0000.00,0000.04,0000.00,26.5,03.8,0667.1,34.6
2016-06-26T00:48:00Z,0000380,00000600,0000.61,0000.78,0000.69,0000.33,-000.35,0000.14,0000.00,0000.17,-000.23,26.5,03.8,0667.1,34.6
2016-06-26T00:49:00Z,0000380,00000600,0001.40,0000.18,0000.38,0001.20,-000.25,0000.14,0000.01,-000.06,0000.13,26.5,03.8,0667.1,34.6
2016-06-26T00:50:00Z,0000380,00000600,0000.47,0000.15,0000.67,-000.13,-000.13,0000.21,0000.02,0000.18,-000.08,26.5,03.8,0667.1,34.6
2016-06-26T00:51:00Z,0000380,00000600,-000.11,0000.60,0000.36,0000.57,-000.25,0000.30,0000.26,-000.15,0000.28,26.5,03.8,0667.1,34.6
2016-06-26T00:52:00Z,0000380,00000600,-000.33,0000.79,0000.18,0000.25,-000.05,-000.03,-000.13,0000.27,0000.17,26.5,03.8,0667.1,34.6
2016-06-26T00:53:00Z,0000380,00000600,0000.30,0000.62,0000.32,0000.43,0000.38,0000.21,0000.12,-000.18,0000.03,26.5,03.8,0667.1,34.6
2016-06-26T00:54:00Z,0000380,00000600,0001.11,0000.34,0000.49,0000.19,-000.28,0000.02,-000.09,-000.12,-000.17,26.5,03.8,0667.2,34.6
2016-06-26T00:55:00Z,0000380,00000600,0001.00,0000.50,0000.16,0000.11,-000.06,0000.51,0000.15,0000.03,-000.38,26.5,03.8,0667.2,34.6
2016-06-26T00:56:00Z,0000380,00000600,0001.10,0001.07,0000.38,0000.19,0000.13,0000.33,0000.01,0000.04,0000.44,26.5,03.8,0667.2,34.6
2016-06-26T00:57:00Z,0000380,40000600,,,,,,,,,,,,0667.1,34.6
2016-06-26T00:58:00Z,0000380,60000600,,,,,,,,,,26.5,03.9,0666.3,34.6
2016-06-26T00:59:00Z,0000380,20000600,,,,,,,,,,26.5,03.8,0666.3,34.6
2016-06-26T01:00:00Z,0000380,20000600,,,,,,,,,,26.4,03.8,0666.3,34.6
2016-06-26T01:01:00Z,0000380,20000600,,,,,,,,,,26.3,03.8,0666.3,34.6
2016-06-26T01:02:00Z,0000380,20000600,,,,,,,,,,26.3,03.8,0666.3,34.6
2016-06-26T01:03:00Z,0000380,60000600,,,,,,,,,,26.4,03.8,0666.3,34.6
2016-06-26T01:04:00Z,0000380,40000600,0000.55,0000.40,0000.35,-000.29,-000.36,0000.24,0000.07,-000.03,0000.10,26.5,03.9,0667.1,34.6
2016-06-26T01:05:00Z,0000380,00000600,0000.23,0001.27,0000.10,-000.27,0000.02,-000.05,0000.17,0000.26,0000.12,26.5,03.9,0667.2,34.6
2016-06-26T01:06:00Z,0000380,00000600,0001.09,0000.47,-000.15,-000.16,0000.46,-000.11,-000.11,-000.18,-000.01,26.5,03.9,0667.2,34.6
2016-06-26T01:07:00Z,0000380,00000600,0000.80,0000.79,0000.23,-000.03,-000.06,-000.03,0000.13,-000.04,0000.05,26.5,03.8,0667.2,34.6
2016-06-26T01:08:00Z,0000380,00000600,0001.46,0000.57,0000.19,-000.11,-000.08,-000.06,-000.01,-000.02,-000.47,26.5,03.8,0667.2,34.6
2016-06-26T01:09:00Z,0000380,00000600,0001.33,0000.53,-000.17,0000.55,0000.06,-000.29,0000.17,0000.30,0000.23,26.5,03.7,0667.2,34.6
2016-06-26T01:10:00Z,0000380,00000600,0000.82,-000.11,-000.07,0000.13,-000.05,-000.05,-000.29,-000.09,0000.03,26.5,03.7,0667.2,34.6
2016-06-26T01:11:00Z,0000380,00000600,0001.10,0000.52,-000.05,-000.29,-000.03,-000.25,0000.15,-000.25,0000.22,26.5,03.8,0667.2,34.6
2016-06-26T01:12:00Z,0000380,00000600,0000.95,0000.66,0000.25,0000.08,0000.39,-000.03,0000.08,0000.28,-000.24,26.5,03.8,0667.2,34.6
2016-06-26T01:13:00Z,0000380,00000600,0000.17,0000.75,0000.10,0000.16,0000.16,0000.10,-000.15,-000.23,0000.18,26.5,03.8,0667.2,34.6
2016-06-26T01:14:00Z,0000380,00000600,0001.55,0000.74,0000.24,0000.16,0000.05,0000.52,0000.20,-000.02,-000.03,26.5,03.8,0667.2,34.6
2016-06-26T01:15:00Z,0000380,00000600,0000.42,0000.67,-000.16,0000.14,-000.41,-000.22,0000.16,0000.14,-000.26,26.5,03.8,0667.2,34.6
2016-06-26T01:16:00Z,0000380,00000600,0000.20,0000.71,0000.32,-000.16,0000.27,0000.13,-000.08,0000.18,0000.30,26.5,03.7,0667.3,34.6
2016-06-26T01:17:00Z,0000380,00000600,-001.03,0000.38,-000.15,-000.06,-000.11,0000.19,-000.14,-000.06,-000.03,26.5,03.7,0667.2,34.6
2016-06-26T01:18:00Z,0000380,00000600,0001.35,0000.77,0000.37,0000.05,-000.05,-000.05,0000.08,-000.02,0000.03,26.5,03.7,0667.2,34.6
2016-06-26T01:19:00Z,0000380,00000600,0001.51,0000.76,0000.16,-000.25,0000.21,0000.33,-000.07,0000.02,0000.04,26.5,03.7,0667.2,34.6
2016-06-26T01:20:00Z,0000380,00000600,0001.96,0000.87,0000.09,0000.25,0000.57,-000.17,0000.08,-000.03,0000.15,26.5,03.7,0667.2,34.6
2016-06-26T01:21:00Z,0000380,00000600,0000.73,0000.38,0000.12,-000.10,0000.08,0000.30,0000.01,-000.02,-000.16,26.5,03.7,0667.2,34.6
2016-06-26T01:22:00Z,0000380,00000600,0000.68,0000.62,0000.13,0000.36,0000.50,0000.21,0000.11,0000.04,-000.16,26.5,03.6,0667.3,34.6
2016-06-26T01:23:00Z,0000380,00000600,0000.77,0000.20,-000.01,0000.11,0000.05,0000.11,-000.00,-000.06,0000.19,26.5,03.6,0667.2,34.6
2016-06-26T01:24:00Z,0000380,00000600,0000.71,0000.67,0000.40,-000.19,0000.33,0000.29,-000.06,-000.08,-000.03,26.5,03.7,0667.2,34.6
2016-06-26T01:25:00Z,0000380,00000600,0000.69,0000.67,0000.22,0000.36,-000.11,-000.02,-000.11,0000.18,-000.16,26.5,03.6,0667.3,34.6
2016-06-26T01:26:00Z,0000380,00000600,0001.63,0000.81,-000.26,-000.05,-000.44,-000.25,-000.03,-000.35,-000.25,26.5,03.6,0667.2,34.6
2016-06-26T01:27:00Z,0000380,00000600,0001.31,0000.21,0000.33,-000.05,0000.28,-000.35,0000.09,0000.08,0000.45,26.5,03.6,0667.2,34.6
2016-06-26T01:28:00Z,0000380,00000600,0000.09,0000.05,0000.26,0000.02,-000.17,0000.10,0000.36,0000.34,0000.24,26.5,03.6,0667.3,34.6
2016-06-26T01:29:00Z,0000380,00000600,0000.84,0000.44,0000.30,-000.05,0000.05,-000.03,-000.14,-000.22,-000.08,26.5,03.5,0667.2,34.6
2016-06-26T01:30:00Z,0000380,00000600,0000.53,-000.05,0000.25,0000.21,0000.09,-000.08,-000.02,0000.18,0000.03,26.5,03.6,0667.3,34.6
2016-06-26T01:31:00Z,0000380,00000600,0001.15,-000.02,-000.12,-000.02,0000.21,0000.17,0000.02,-000.01,-000.22,26.5,03.6,0667.2,34.6
2016-06-26T01:32:00Z,0000380,00000600,0000.35,0000.65,-000.16,-000.24,0000.36,-000.21,-000.05,-000.01,0000.08,26.4,03.6,0667.2,34.6
2016-06-26T01:33:00Z,0000380,00000600,0000.57,0000.19,-000.02,0000.48,0000.27,0000.19,-000.08,0000.04,-000.18,26.5,03.5,0667.2,34.6
2016-06-26T01:34:00Z,0000380,00000600,0001.23,0000.54,-000.30,-000.05,0000.17,-000.32,0000.15,-000.01,0000.15,26.4,03.5,0667.2,34.6
2016-06-26T01:35:00Z,0000380,00000600,0000.76,0001.02,-000.21,0000.06,0000.16,0000.02,-000.01,-000.18,0000.09,26.4,03.5,0667.2,34.6
2016-06-26T01:36:00Z,0000380,00000600,0001.65,0000.36,0000.10,-000.17,0000.28,-000.02,-000.00,0000.11,0000.00,26.4,03.5,0667.2,34.6
2016-06-26T01:37:00Z,0000380,00000600,0000.76,0000.43,-000.12,-000.52,0000.27,-000.27,-000.24,-000.00,-000.17,26.4,03.5,0667.2,34.6
2016-06-26T01:38:00Z,0000380,00000600,0000.26,0000.84,0000.19,0000.41,0000.49,0000.06,0000.19,0000.00,-000.02,26.4,03.5,0667.2,34.6
2016-06-26T01:39:00Z,0000380,00000600,0000.35,0000.47,-000.01,0000.14,0000.39,0000.21,-000.13,0000.07,-000.18,26.4,03.5,0667.2,34.6
2016-06-26T01:40:00Z,0000380,00000600,0000.82,0000.67,0000.17,-000.03,-000.03,0000.02,0000.35,0000.01,0000.37,26.4,03.5,0667.2,34.6
2016-06-26T01:41:00Z,0000380,00000600,0000.84,0000.50,0000.08,-000.49,0000.00,-000.17,-000.19,-000.03,-000.07,26.4,03.5,0667.2,34.6
2016-06-26T01:42:00Z,0000380,00000600,0000.63,0000.46,0000.33,0000.30,0000.06,0000.24,-000.02,-000.18,-000.06,26.4,03.4,0667.2,34.6
2016-06-26T01:43:00Z,0000380,00000600,0000.69,0000.67,0000.12,0000.17,-000.16,0000.33,0000.06,-000.03,-000.05,26.3,03.4,0667.2,34.6
2016-06-26T01:44:00Z,0000380,00000600,0000.57,0000.07,0000.41,-000.22,0000.08,-000.11,-000.07,0000.12,0000.10,26.4,03.4,0667.2,34.6
2016-06-26T01:45:00Z,0000380,00000600,0000.64,0000.26,0000.28,-000.35,-000.03,-000.13,0000.12,0000.04,-000.10,26.4,03.4,0667.2,34.6
2016-06-26T01:46:00Z,0000380,00000600,0000.26,0000.34,-000.28,0000.52,-000.14,0000.21,-000.04,-000.13,0000.22,26.3,03.3,0667.2,34.6
2016-06-26T01:47:00Z,0000380,00000600,0000.95,0001.18,0000.39,0000.16,0000.46,0000.00,0000.21,0000.17,-000.27,26.3,03.3,0667.2,34.6
2016-06-26T01:48:00Z,0000380,00000600,-000.08,0000.32,0000.08,0000.17,-000.32,0000.10,-000.16,0000.11,0000.39,26.3,03.2,0667.2,34.6
2016-06-26T01:49:00Z,0000380,00000600,0001.24,0000.81,0000.15,0000.03,0000.03,0000.10,-000.00,0000.05,-000.01,26.3,03.2,0667.2,34.6
2016-06-26T01:50:00Z,0000380,00000600,0001.25,0000.25,-000.01,0000.21,0000.11,0000.24,-000.16,-000.26,-000.44,26.3,03.2,0667.2,34.6
2016-06-26T01:51:00Z,0000380,00000600,0000.35,0000.53,0000.36,0000.05,0000.14,0000.22,0000.17,-000.18,0000.15,26.3,03.1,0667.2,34.6
2016-06-26T01:52:00Z,0000380,00000600,0000.59,0000.67,0000.35,-000.05,0000.27,0000.46,-000.01,0000.16,-000.16,26.3,03.1,0667.3,34.6
2016-06-26T01:53:00Z,0000380,00000600,0000.61,0000.25,-000.30,-000.03,0000.09,-000.24,-000.16,0000.07,-000.25,26.3,03.0,0667.3,34.6
2016-06-26T01:54:00Z,0000380,00000600,0001.00,0000.73,0000.22,-000.30,-000.11,0000.21,-000.03,-000.00,0000.03,26.3,03.0,0667.3,34.6
2016-06-26T01:55:00Z,0000380,00000600,0000.61,0000.40,0000.06,0000.02,-000.05,-000.02,0000.20,-000.14,0000.43,26.3,02.9,0667.3,34.6
2016-06-26T01:56:00Z,0000380,00000600,0001.11,0001.35,0000.35,0000.49,0000.03,0000.24,-000.06,0000.09,-000.20,26.3,02.9,0667.3,34.6
2016-06-26T01:57:00Z,0000380,40000600,,,,,,,,,,,,0667.3,34.6
2016-06-26T01:58:00Z,0000380,60000600,,,,,,,,,,26.2,03.1,0666.4,34.6
2016-06-26T01:59:00Z,0000380,20000600,,,,,,,,,,26.2,03.1,0666.4,34.6
2016-06-26T02:00:00Z,0000380,20000600,,,,,,,,,,26.2,02.9,0666.4,34.6
2016-06-26T02:01:00Z,0000380,20000600,,,,,,,,,,26.2,02.9,0666.4,34.6
2016-06-26T02:02:00Z,0000380,20000600,,,,,,,,,,26.2,02.9,0666.4,34.6
2016-06-26T02:03:00Z,0000380,60000600,,,,,,,,,,26.2,02.9,0666.4,34.6
2016-06-26T02:04:00Z,0000380,40000600,0000.65,0000.66,0000.38,-000.28,-000.76,0000.11,0000.02,0000.11,-000.07,26.3,02.7,0667.2,34.6
2016-06-26T02:05:00Z,0000380,00000600,-000.02,-000.02,0000.12,0000.33,0000.19,-000.02,-000.07,-000.26,0000.23,26.3,02.7,0667.3,34.6
2016-06-26T02:06:00Z,0000380,00000600,0000.57,0000.27,0000.07,0000.47,0000.08,-000.16,-000.02,0000.11,-000.19,26.3,02.6,0667.3,34.6
2016-06-26T02:07:00Z,0000380,00000600,0000.60,0000.72,0000.20,0000.41,-000.08,0000.00,0000.02,0000.05,0000.05,26.3,02.5,0667.3,34.6
2016-06-26T02:08:00Z,0000380,00000600,-000.06,0000.86,0000.23,0000.28,-000.28,0000.00,-000.02,-000.14,-000.19,26.3,02.6,0667.3,34.6
2016-06-26T02:09:00Z,0000380,00000600,0001.39,0000.07,0000.22,-000.25,-000.09,0000.21,0000.03,0000.07,0000.03,26.3,02.6,0667.3,34.6
2016-06-26T02:10:00Z,0000380,00000600,-000.16,0000.59,0000.05,0000.24,-000.35,-000.13,-000.02,0000.07,0000.11,26.3,02.5,0667.3,34.6
2016-06-26T02:11:00Z,0000380,00000600,0000.17,0000.90,0000.21,-000.05,-000.28,-000.08,-000.12,-000.20,-000.19,26.3,02.5,0667.3,34.6
2016-06-26T02:12:00Z,0000380,00000600,0001.09,0000.37,0000.16,0000.27,-000.19,-000.30,0000.22,-000.10,0000.16,26.3,02.6,0667.3,34.6
2016-06-26T02:13:00Z,0000380,00000600,-000.04,0000.56,-000.10,-000.36,-000.06,-000.03,-000.00,0000.18,-000.19,26.2,02.5,0667.3,34.6
2016-06-26T02:14:00Z,0000380,00000600,0000.67,0000.52,0000.23,-000.09,-000.28,0000.02,-000.15,0000.09,0000.16,26.3,02.6,0667.3,34.6
2016-06-26T02:15:00Z,0000380,00000600,-000.46,0000.64,0000.21,-000.38,-000.25,0000.05,0000.24,0000.02,0000.07,26.2,02.5,0667.3,34.6
2016-06-26T02:16:00Z,0000380,00000600,0000.12,0000.59,0000.33,0000.32,-000.46,0000.10,-000.33,-000.10,-000.27,26.2,02.5,0667.3,34.6
2016-06-26T02:17:00Z,0000380,00000600,0000.02,0000.21,0000.46,-000.03,-000.61,0000.03,-000.02,-000.06,-000.01,26.2,02.6,0667.3,34.6
2016-06-26T02:18:00Z,0000380,00000600,-000.03,0000.47,-000.02,-000.33,-000.13,-000.19,0000.18,-000.03,0000.10,26.2,02.5,0667.3,34.6
2016-06-26T02:19:00Z,0000380,00000600,-000.24,0000.34,0000.07,0000.08,0000.02,0000.06,-000.26,0000.10,0000.19,26.2,02.4,0667.3,34.6
2016-06-26T02:20:00Z,0000380,00000600,0000.11,0000.18,0000.23,-000.03,-000.25,-000.29,0000.33,-000.16,-000.36,26.2,02.4,0667.3,34.6
2016-06-26T02:21:00Z,0000380,00000600,0001.32,0000.79,0000.13,-000.05,-000.05,-000.33,-000.03,0000.21,0000.14,26.2,02.4,0667.3,34.6
2016-06-26T02:22:00Z,0000380,00000600,0000.88,0000.45,0000.15,-000.19,-000.54,0000.41,-000.05,-000.14,0000.11,26.2,02.5,0667.3,34.6
2016-06-26T02:23:00Z,0000380,00000600,-000.25,0000.31,0000.17,-000.02,-000.33,-000.02,0000.04,-000.07,0000.06,26.2,02.5,0667.3,34.6
2016-06-26T02:24:00Z,0000380,00000600,-000.32,0000.25,0000.07,0000.28,-000.58,0000.14,-000.08,0000.10,-000.12,26.2,02.5,0667.3,34.6
2016-06-26T02:25:00Z,0000380,00000600,0000.49,0000.27,0000.05,0000.71,-000.17,-000.08,-000.01,0000.01,0000.02,26.2,02.5,0667.3,34.6
2016-06-26T02:26:00Z,0000380,00000600,0000.36,0000.13,0000.19,0000.30,-000.27,0000.05,0000.06,-000.18,-000.24,26.2,02.5,0667.3,34.6
2016-06-26T02:27:00Z,0000380,00000600,0000.34,0000.69,0000.31,-000.06,-000.22,-000.03,0000.15,0000.26,0000.40,26.2,02.4,0667.3,34.6
2016-06-26T02:28:00Z,0000380,00000600,0000.02,0000.63,-000.05,0000.38,-000.30,0000.36,-000.02,-000.17,-000.41,26.2,02.4,0667.3,34.6
2016-06-26T02:29:00Z,0000380,00000600,0000.76,0000.05,0000.34,-000.44,-000.52,0000.19,-000.09,0000.12,0000.07,26.1,02.5,0667.3,34.6
2016-06-26T02:30:00Z,0000380,00000600,-000.13,0000.37,-000.17,-000.41,-000.11,-000.21,-000.16,-000.05,0000.21,26.2,02.4,0667.3,34.5
2016-06-26T02:31:00Z,0000380,00000600,0000.49,0000.32,-000.05,-000.17,-000.06,-000.13,0000.11,-000.03,0000.09,26.1,02.4,0667.3,34.5
2016-06-26T02:32:00Z,0000380,00000600,-000.72,-000.35,-000.04,-000.08,-000.22,0000.19,-000.05,0000.02,-000.14,26.2,02.4,0667.3,34.5
2016-06-26T02:33:00Z,0000380,00000600,0000.22,-000.29,0000.26,0000.06,0000.08,0000.14,0000.18,-000.13,-000.21,26.1,02.4,0667.3,34.5
2016-06-26T02:34:00Z,0000380,00000600,0000.09,-000.03,-000.07,0000.41,-000.39,0000.03,-000.08,0000.12,-000.29,26.1,02.4,0667.3,34.5
2016-06-26T02:35:00Z,0000380,00000600,-000.36,0000.69,-000.01,-000.25,0000.05,-000.22,0000.10,-000.11,0000.72,26.1,02.4,0667.3,34.5
2016-06-26T02:36:00Z,0000380,00000600,0000.49,-000.18,-000.01,-000.16,-000.08,0000.00,-000.13,0000.16,-000.34,26.1,02.3,0667.3,34.5
2016-06-26T02:37:00Z,0000380,00000600,0000.17,-000.05,0000.00,-000.08,-000.30,-000.08,0000.14,0000.04,0000.03,26.1,02.4,0667.3,34.5
2016-06-26T02:38:00Z,0000380,00000600,0000.11,0000.11,0000.10,0000.11,0000.06,-000.51,-000.04,-000.01,-000.31,26.1,02.4,0667.3,34.5
2016-06-26T02:39:00Z,0000380,00000600,0000.10,-000.05,0000.27,0000.06,-000.58,0000.08,0000.04,0000.12,0000.16,26.1,02.3,0667.3,34.5
2016-06-26T02:40:00Z,0000380,00000600,0000.33,0000.00,-000.17,0000.16,-000.19,-000.24,-000.05,0000.05,0000.41,26.1,02.3,0667.3,34.5
2016-06-26T02:41:00Z,0000380,00000600,0000.83,0000.11,-000.05,0000.24,-000.28,-000.14,0000.02,-000.15,-000.16,26.1,02.4,0667.3,34.5
2016-06-26T02:42:00Z,0000380,00000600,0000.37,0000.34,-000.09,-000.02,-000.24,-000.03,-000.28,0000.04,-000.27,26.1,02.3,0667.3,34.5
2016-06-26T02:43:00Z,0000380,00000600,-000.21,0000.24,0000.05,0000.33,-000.38,0000.38,0000.32,-000.11,-000.03,26.1,02.4,0667.3,34.5
2016-06-26T02:44:00Z,0000380,00000600,0000.26,-000.14,0000.01,0000.00,-000.11,0000.14,-000.08,-000.15,0000.29,26.1,02.4,0667.3,34.5
2016-06-26T02:45:00Z,0000380,00000600,0000.14,-000.05,-000.09,-000.32,-000.55,-000.08,0000.33,0000.25,0000.06,26.1,02.3,0667.3,34.5
2016-06-26T02:46:00Z,0000380,00000600,0000.43,0000.27,-000.06,0000.05,-000.16,-000.22,-000.14,0000.08,0000.18,26.1,02.3,0667.2,34.5
2016-06-26T02:47:00Z,0000380,00000600,0000.13,0000.00,0000.00,0000.16,0000.00,-000.41,-000.25,-000.19,-000.39,26.1,02.3,0667.3,34.5
2016-06-26T02:48:00Z,0000380,00000600,-000.05,0000.03,-000.41,0000.14,-000.43,-000.16,0000.17,0000.12,0000.11,26.1,02.3,0667.3,34.5
2016-06-26T02:49:00Z,0000380,00000600,0000.78,0000.30,0000.02,0000.19,-000.09,-000.03,-000.11,-000.07,0000.13,26.1,02.3,0667.3,34.5
2016-06-26T02:50:00Z,0000380,00000600,-000.31,0000.43,0000.06,0000.46,-000.24,-000.03,0000.04,0000.04,-000.23,26.1,02.3,0667.3,34.5
2016-06-26T02:51:00Z,0000380,00000600,0000.02,-000.27,0000.25,-000.17,-000.54,0000.02,-000.23,-000.00,0000.43,26.1,02.4,0667.3,34.5
2016-06-26T02:52:00Z,0000380,00000600,-000.09,0000.06,0000.11,-000.13,-000.33,0000.13,0000.22,-000.04,-000.38,26.1,02.3,0667.3,34.5
2016-06-26T02:53:00Z,0000380,00000600,-000.36,0000.58,0000.53,0000.79,-000.38,-000.17,0000.03,0000.12,-000.04,26.1,02.3,0667.2,34.5
2016-06-26T02:54:00Z,0000380,00000600,-001.25,0000.13,0000.11,0000.32,-000.41,-000.13,-000.24,-000.08,0000.01,26.1,02.3,0667.2,34.5
2016-06-26T02:55:00Z,0000380,00000600,-000.02,0000.35,0000.22,0000.14,-000.33,-000.14,0000.46,0000.12,0000.28,26.1,02.3,0667.2,34.5
2016-06-26T02:56:00Z,0000380,00000600,0000.39,-000.06,0000.27,-000.02,-000.35,0000.11,-000.29,-000.04,0000.08,26.1,02.4,0667.2,34.5
2016-06-26T02:57:00Z,0000380,40000600,,,,,,,,,,,,0667.3,34.5
2016-06-26T02:58:00Z,0000380,60000600,,,,,,,,,,26.0,02.6,0666.4,34.5
2016-06-26T02:59:00Z,0000380,20000600,,,,,,,,,,26.0,02.4,0666.4,34.5
2016-06-26T03:00:00Z,0000380,20000600,,,,,,,,,,26.0,02.4,0666.4,34.5
2016-06-26T03:01:00Z,0000380,20000600,,,,,,,,,,26.0,02.4,0666.4,34.5
2016-06-26T03:02:00Z,0000380,20000600,,,,,,,,,,26.0,02.4,0666.4,34.5
2016-06-26T03:03:00Z,0000380,60000600,,,,,,,,,,26.0,02.4,0666.4,34.5
2016-06-26T03:04:00Z,0000380,40000600,0001.55,-000.34,-000.03,-000.19,0000.46,-000.14,0000.10,0000.07,0000.03,26.1,02.4,0667.2,34.5
2016-06-26T03:05:00Z,0000380,00000600,0000.33,0000.21,0000.03,-000.33,-000.13,-000.13,0000.03,0000.05,-000.09,26.1,02.3,0667.3,34.5
2016-06-26T03:06:00Z,0000380,00000600,-000.12,0000.04,0000.05,0000.65,0000.24,-000.24,-000.02,-000.06,0000.06,26.1,02.4,0667.3,34.5
2016-06-26T03:07:00Z,0000380,00000600,0000.31,0000.23,-000.10,0000.14,0000.02,-000.06,-000.02,0000.12,0000.08,26.2,02.3,0667.3,34.5
2016-06-26T03:08:00Z,0000380,00000600,0000.16,0000.52,0000.62,0000.41,0000.27,-000.02,-000.12,-000.12,-000.05,26.2,02.4,0667.2,34.5
2016-06-26T03:09:00Z,0000380,00000600,-000.35,0000.18,0000.15,0000.05,0000.17,-000.35,-000.01,0000.13,-000.19,26.2,02.3,0667.3,34.5
2016-06-26T03:10:00Z,0000380,00000600,-000.27,0000.56,0000.05,-000.13,-000.16,-000.24,-000.02,-000.12,0000.25,26.2,02.3,0667.3,34.5
2016-06-26T03:11:00Z,0000380,00000600,0000.80,-000.21,0000.25,0000.54,0000.43,0000.06,-000.03,0000.01,0000.13,26.2,02.3,0667.3,34.5
2016-06-26T03:12:00Z,0000380,00000600,0000.56,0000.13,-000.24,0000.57,0000.17,-000.02,0000.04,-000.04,-000.39,26.2,02.2,0667.3,34.5